This is the latest recevied weather packets stored in our database for station/object DC7RY. If no packets are shown the sender has not sent any weather packets the latest 10 day(s).
| Time | Temp. | Humidity | Pressure | Rain* | Wind** | Luminosity | Snow |
|---|---|---|---|---|---|---|---|
| 1777456821 | 12.78° C | 34% | 1018.6 hPa | 0 mm | - | 127 W/m² | - |
| 1777456229 | 12.78° C | 34% | 1018.8 hPa | 0 mm | - | 115 W/m² | - |
| 1777455621 | 12.78° C | 37% | 1018.9 hPa | 0 mm | - | 128 W/m² | - |
| 1777455029 | 12.78° C | 36% | 1019.1 hPa | 0 mm | - | 68 W/m² | - |
| 1777454421 | 12.22° C | 36% | 1019.3 hPa | 0 mm | - | 112 W/m² | - |
| 1777453829 | 12.22° C | 36% | 1019.5 hPa | 0 mm | - | 183 W/m² | - |
| 1777453221 | 11.67° C | 39% | 1019.4 hPa | 0 mm | - | 118 W/m² | - |
| 1777452629 | 11.67° C | 38% | 1019.5 hPa | 0 mm | - | 78 W/m² | - |
| 1777452021 | 11.67° C | 37% | 1019.5 hPa | 0 mm | - | 42 W/m² | - |
| 1777451429 | 11.11° C | 37% | 1019.6 hPa | 0 mm | - | 89 W/m² | - |
| 1777450821 | 11.11° C | 40% | 1019.4 hPa | 0 mm | - | 53 W/m² | - |
| 1777450229 | 11.11° C | 38% | 1019.5 hPa | 0 mm | - | 46 W/m² | - |
| 1777449621 | 10.56° C | 40% | 1019.2 hPa | 0 mm | - | 38 W/m² | - |
| 1777449029 | 10.56° C | 40% | 1019.2 hPa | 0 mm | - | 36 W/m² | - |
| 1777448421 | 10.56° C | 41% | 1019.1 hPa | 0 mm | - | 37 W/m² | - |
| 1777447829 | 10.56° C | 43% | 1019 hPa | 0 mm | - | 37 W/m² | - |
| 1777447221 | 10.56° C | 43% | 1018.9 hPa | 0 mm | - | 46 W/m² | - |
| 1777446629 | 10° C | 41% | 1018.6 hPa | 0 mm | - | 72 W/m² | - |
| 1777446021 | 9.44° C | 42% | 1018.3 hPa | 0 mm | - | 92 W/m² | - |
| 1777445429 | 8.89° C | 44% | 1018 hPa | 0 mm | - | 64 W/m² | - |
| 1777444821 | 8.33° C | 45% | 1017.8 hPa | 0 mm | - | 47 W/m² | - |
| 1777444228 | 7.78° C | 47% | 1017.7 hPa | 0 mm | - | 43 W/m² | - |
| 1777443620 | 7.22° C | 49% | 1017.6 hPa | 0 mm | - | 36 W/m² | - |
| 1777443028 | 7.22° C | 50% | 1017.6 hPa | 0 mm | - | 33 W/m² | - |
| 1777442420 | 6.67° C | 52% | 1017.6 hPa | 0 mm | - | 30 W/m² | - |
* Rain latest hour (hover to see other rain measurements)
** Current wind speed in m/s (hover to see current wind gust speed)